Change the Weather History Date:

Tuesday, October 2, 2012

  Actual Average Record
Temperature  
Mean Temperature 68 °F -  
Max Temperature 73 °F 65 °F 79 °F (2014)
Min Temperature 62 °F 56 °F 57 °F (1996)
Cooling Degree Days 2    
Growing Degree Days 18 (Base 50)    
Moisture  
Dew Point 58 °F    
Average Humidity 72    
Maximum Humidity 78    
Minimum Humidity 60    
Precipitation  
Precipitation 0.00 in 0.12 in - ()
Sea Level Pressure  
Sea Level Pressure 30.05 in    
Wind  
Wind Speed 8 mph ()    
Max Wind Speed 22 mph    
Max Gust Speed -    
Visibility 7.6 miles    
Events      
Averages and records for this station are not official NWS values.
T = Trace of Precipitation, MM = Missing Value Source: Averaged Metar Reports

Daily Weather History Graph

Daily Weather History Graph

Search for Another Location

Airport or City:

Trip Planner

Search our weather history database for the weather conditions in past years. The results will help you decide how hot, cold, wet, or windy it might be!

Date:

Astronomy

Oct. 02, 2012 Rise Set
Actual Time 7:26 AM CEST 7:05 PM CEST
Civil Twilight 6:57 AM CEST 7:34 PM CEST
Nautical Twilight 6:24 AM CEST 8:08 PM CEST
Astronomical Twilight 5:50 AM CEST 8:41 PM CEST
Moon 8:01 PM CEST (10/2) 9:44 AM CEST (10/2)
Length of Visible Light 12h 37m
Length of Day
11h 39m
Waning Gibbous, 95% of the Moon is Illuminated
Oct 2
Waning Gibbous
Oct 8
Last Quarter
Oct 15
New
Oct 22
First Quarter
Oct 29
Full

Hourly Weather History & Observations

Time (CEST) Temp. Dew Point Humidity Pressure Visibility Wind Dir Wind Speed Gust Speed Precip Events Conditions
12:55 AM 64.4 °F 55.4 °F 73% 30.06 in - WSW 8.1 mph - N/A   Clear
1:55 AM 64.4 °F 57.2 °F 77% 30.06 in - WSW 10.4 mph - N/A   Clear
2:00 AM 64 °F 56 °F 69% 30.06 in 12 mi WSW 10.4 mph - -  
4:55 AM 64.4 °F 55.4 °F 73% 30.04 in - SW 3.5 mph - N/A   Clear
5:55 AM 64.4 °F 57.2 °F 77% 30.04 in 6.2 mi North 3.5 mph - N/A   Partly Cloudy
7:55 AM 62.6 °F 55.4 °F 77% 30.04 in 6.2 mi North 4.6 mph - N/A   Scattered Clouds
8:00 AM 63 °F 54 °F 66% 30.04 in 12 mi North 4.6 mph - -   Partly Cloudy
8:55 AM 64.4 °F 57.2 °F 77% 30.04 in 6.2 mi North 4.6 mph - N/A   Scattered Clouds
9:55 AM 68.0 °F 60.8 °F 78% 30.04 in 6.2 mi NNE 6.9 mph - N/A   Scattered Clouds
10:55 AM 68.0 °F 60.8 °F 78% 30.04 in 6.2 mi NNE 9.2 mph - N/A   Partly Cloudy
11:55 AM 71.6 °F 62.6 °F 73% 30.06 in 6.2 mi NE 8.1 mph - N/A   Partly Cloudy
12:55 PM 71.6 °F 62.6 °F 73% 30.06 in 6.2 mi East 5.8 mph - N/A   Partly Cloudy
1:55 PM 71.6 °F 62.6 °F 73% 30.06 in 6.2 mi South 10.4 mph - N/A   Partly Cloudy
2:00 PM 71 °F 63 °F 68% 30.05 in 12 mi South 10.4 mph - -   Scattered Clouds
2:55 PM 71.6 °F 64.4 °F 78% 30.04 in 6.2 mi South 11.5 mph - N/A   Partly Cloudy
3:55 PM 71.6 °F 60.8 °F 69% 30.04 in 6.2 mi SSW 18.4 mph - N/A   Partly Cloudy
4:55 PM 69.8 °F 55.4 °F 60% 30.04 in - SW 21.9 mph - N/A   Clear
5:55 PM 68.0 °F 55.4 °F 64% 30.04 in - SW 19.6 mph - N/A   Clear
6:55 PM 64.4 °F 55.4 °F 73% 30.04 in - SW 12.7 mph - N/A   Clear
7:55 PM 64.4 °F 55.4 °F 73% 30.04 in - WSW 8.1 mph - N/A   Clear
8:00 PM 64 °F 56 °F 67% 30.04 in 12 mi WSW 8.1 mph - -  
8:55 PM 64.4 °F 55.4 °F 73% 30.06 in - WSW 8.1 mph - N/A   Clear
9:55 PM 64.4 °F 53.6 °F 68% 30.06 in 6.2 mi SW 6.9 mph - N/A   Partly Cloudy
10:55 PM 64.4 °F 55.4 °F 73% 30.06 in 6.2 mi Variable 1.2 mph - N/A   Partly Cloudy
11:55 PM 62.6 °F 55.4 °F 77% 30.06 in 6.2 mi North 6.9 mph - N/A   Partly Cloudy